Tracking 25710 objects as of 6-Jul-2022
HD Live streaming from Space Station
objects crossing your sky now

FENGYUN 1C DEB

Track FENGYUN 1C DEB now!
10-day predictions


NORAD ID: 30362
Int'l Code: 1999-025ABZ
Perigee: 829.8 km
Apogee: 984.2 km
Inclination: 99.0 °
Period: 103.0 minutes
Semi major axis: 7278 km
RCS: 0.04 m2 (small)
Launch date: May 10, 1999
Source: People's Republic of China (PRC)
Launch site: Taiyaun Space Center, China (TSC)

Note: This is SATELLITE DEBRIS
aabbcc
Your satellite tracking list
Your tracking list is empty




NASA's NSSDC Master Catalog

Two Line Element Set (TLE):
1 30362U 99025ABZ 22187.46409016  .00001540  00000-0  10596-2 0  9992
2 30362  99.0380  99.6473 0106081 233.7449 125.3876 13.98242784785618
Source of the keplerian elements: AFSPC